Time,TemperatureF,DewpointF,PressureIn,WindDirection,WindDirectionDegrees,WindSpeedMPH,WindSpeedGustMPH,Humidity,HourlyPrecipIn,Conditions,Clouds,dailyrainin,SoftwareType,DateUTC
2013-07-24 00:03:00,76.6,51.8,29.76,NNE,13,4.6,4.6,42,0.00,OVC,,0.00,WeatherDisplay:10.37,2013-07-24 07:03:00,
2013-07-24 00:08:00,76.3,52.2,29.76,NE,44,4.0,4.0,43,0.00,OVC,,0.00,WeatherDisplay:10.37,2013-07-24 07:08:00,
2013-07-24 00:13:00,75.7,51.6,29.76,WSW,243,7.0,7.0,43,0.00,OVC,,0.00,WeatherDisplay:10.37,2013-07-24 07:13:00,
2013-07-24 00:18:00,76.8,52.6,29.76,WSW,238,7.0,7.0,43,0.00,OVC,,0.00,WeatherDisplay:10.37,2013-07-24 07:18:00,
2013-07-24 00:23:00,78.0,52.4,29.76,SSW,209,6.0,6.0,41,0.00,OVC,,0.00,WeatherDisplay:10.37,2013-07-24 07:23:00,
2013-07-24 00:29:00,77.3,51.8,29.77,South,184,6.9,6.9,41,0.00,OVC,,0.00,WeatherDisplay:10.37,2013-07-24 07:29:00,
2013-07-24 00:34:00,76.8,52.0,29.76,South,184,3.5,3.5,42,0.00,OVC,,0.00,WeatherDisplay:10.37,2013-07-24 07:34:00,
2013-07-24 00:39:00,77.7,53.4,29.76,SSW,202,4.6,4.6,43,0.00,OVC,,0.00,WeatherDisplay:10.37,2013-07-24 07:39:00,
2013-07-24 00:44:00,78.4,54.0,29.76,SSW,213,2.3,2.3,43,0.00,OVC,,0.00,WeatherDisplay:10.37,2013-07-24 07:44:00,
2013-07-24 00:49:00,79.1,54.7,29.75,SW,233,5.8,5.8,43,0.00,OVC,,0.00,WeatherDisplay:10.37,2013-07-24 07:49:00,
2013-07-24 00:55:00,79.1,54.1,29.75,SW,216,2.0,6.0,42,0.00,CLR,,0.00,WeatherDisplay:10.37,2013-07-24 07:55:00,
2013-07-24 01:00:00,78.8,54.4,29.75,SSW,206,6.0,7.0,43,0.00,CLR,,0.00,WeatherDisplay:10.37,2013-07-24 08:00:00,
2013-07-24 01:05:00,78.4,54.0,29.75,SSW,208,0.0,6.0,43,0.00,CLR,,0.00,WeatherDisplay:10.37,2013-07-24 08:05:00,
2013-07-24 01:10:00,78.0,53.7,29.75,SSW,206,3.0,6.0,43,0.00,CLR,,0.00,WeatherDisplay:10.37,2013-07-24 08:10:00,
2013-07-24 01:15:00,75.9,51.8,29.76,SSW,192,7.0,10.0,43,0.00,CLR,,0.00,WeatherDisplay:10.37,2013-07-24 08:15:00,
2013-07-24 01:20:00,73.6,49.7,29.76,SW,219,6.0,9.0,43,0.00,CLR,,0.00,WeatherDisplay:10.37,2013-07-24 08:20:00,
2013-07-24 01:25:00,73.2,50.0,29.76,WSW,243,3.0,6.0,44,0.00,CLR,,0.00,WeatherDisplay:10.37,2013-07-24 08:25:00,
2013-07-24 01:30:00,73.4,50.8,29.76,SW,234,5.0,7.0,45,0.00,CLR,,0.00,WeatherDisplay:10.37,2013-07-24 08:30:00,
2013-07-24 01:35:00,75.0,54.6,29.75,SW,216,8.0,10.0,49,0.00,CLR,,0.00,WeatherDisplay:10.37,2013-07-24 08:35:00,
2013-07-24 01:40:00,76.0,54.3,29.76,West,271,9.2,9.2,47,0.00,OVC,,0.00,WeatherDisplay:10.37,2013-07-24 08:40:00,
2013-07-24 01:45:00,75.3,52.5,29.76,West,280,5.8,5.8,45,0.00,OVC,,0.00,WeatherDisplay:10.37,2013-07-24 08:45:00,
2013-07-24 01:50:00,75.4,54.3,29.75,SW,232,5.0,5.0,48,0.00,OVC,,0.00,WeatherDisplay:10.37,2013-07-24 08:50:00,
2013-07-24 01:55:00,75.9,55.4,29.75,SSW,209,6.9,6.9,49,0.00,OVC,,0.00,WeatherDisplay:10.37,2013-07-24 08:55:00,
2013-07-24 02:00:00,76.9,56.3,29.75,SSW,196,12.7,12.7,49,0.00,OVC,,0.00,WeatherDisplay:10.37,2013-07-24 09:00:00,
2013-07-24 02:05:00,76.6,56.0,29.75,SSW,207,12.0,12.0,49,0.00,CLR,,0.00,WeatherDisplay:10.37,2013-07-24 09:05:00,
2013-07-24 02:11:00,76.2,56.2,29.76,SW,215,18.4,18.4,50,0.00,OVC,,0.00,WeatherDisplay:10.37,2013-07-24 09:11:00,
2013-07-24 02:16:00,75.8,56.4,29.76,SSW,200,17.3,17.3,51,0.00,OVC,,0.00,WeatherDisplay:10.37,2013-07-24 09:16:00,
2013-07-24 02:21:00,75.5,56.1,29.75,SSW,209,15.0,15.0,51,0.00,OVC,,0.00,WeatherDisplay:10.37,2013-07-24 09:21:00,
2013-07-24 02:26:00,75.5,55.6,29.76,SW,221,14.0,14.0,50,0.00,OVC,,0.00,WeatherDisplay:10.37,2013-07-24 09:26:00,
2013-07-24 02:31:00,75.4,55.5,29.75,SSW,203,14.0,14.0,50,0.00,OVC,,0.00,WeatherDisplay:10.37,2013-07-24 09:31:00,
2013-07-24 02:36:00,75.5,55.6,29.75,SSW,203,17.3,17.3,50,0.00,OVC,,0.00,WeatherDisplay:10.37,2013-07-24 09:36:00,
2013-07-24 02:41:00,75.6,55.6,29.75,SSW,193,21.0,21.0,50,0.00,OVC,,0.00,WeatherDisplay:10.37,2013-07-24 09:41:00,
2013-07-24 02:47:00,75.7,55.7,29.75,SSW,194,26.5,26.5,50,0.00,OVC,,0.00,WeatherDisplay:10.37,2013-07-24 09:47:00,
2013-07-24 02:52:00,75.7,55.2,29.75,SSW,206,20.7,20.7,49,0.00,OVC,,0.00,WeatherDisplay:10.37,2013-07-24 09:52:00,
2013-07-24 02:57:00,75.6,55.1,29.75,SSW,193,21.0,21.0,49,0.00,OVC,,0.00,WeatherDisplay:10.37,2013-07-24 09:57:00,
2013-07-24 03:02:00,75.4,54.9,29.75,SSW,204,17.3,17.3,49,0.00,OVC,,0.00,WeatherDisplay:10.37,2013-07-24 10:02:00,
2013-07-24 03:07:00,75.4,54.9,29.75,South,191,16.1,16.1,49,0.00,OVC,,0.00,WeatherDisplay:10.37,2013-07-24 10:07:00,
2013-07-24 03:12:00,75.3,54.3,29.75,SSW,213,18.4,18.4,48,0.00,OVC,,0.00,WeatherDisplay:10.37,2013-07-24 10:12:00,
2013-07-24 03:17:00,75.2,54.2,29.75,SSW,198,11.5,11.5,48,0.00,OVC,,0.00,WeatherDisplay:10.37,2013-07-24 10:17:00,
2013-07-24 03:22:00,75.0,54.0,29.75,SW,222,13.8,13.8,48,0.00,OVC,,0.00,WeatherDisplay:10.37,2013-07-24 10:22:00,
2013-07-24 03:27:00,74.4,54.0,29.75,SW,225,12.7,12.7,49,0.00,OVC,,0.00,WeatherDisplay:10.37,2013-07-24 10:27:00,
2013-07-24 03:32:00,74.0,53.6,29.75,SSW,213,10.4,10.4,49,0.00,OVC,,0.00,WeatherDisplay:10.37,2013-07-24 10:32:00,
2013-07-24 03:37:00,73.9,53.5,29.75,SW,216,11.0,11.0,49,0.00,OVC,,0.00,WeatherDisplay:10.37,2013-07-24 10:37:00,
2013-07-24 03:42:00,73.9,54.1,29.75,SW,233,12.0,12.0,50,0.00,OVC,,0.00,WeatherDisplay:10.37,2013-07-24 10:42:00,
2013-07-24 03:48:00,73.9,54.1,29.75,SW,223,12.0,12.0,50,0.00,OVC,,0.00,WeatherDisplay:10.37,2013-07-24 10:48:00,
2013-07-24 03:53:00,74.0,53.6,29.75,WSW,244,6.9,6.9,49,0.00,OVC,,0.00,WeatherDisplay:10.37,2013-07-24 10:53:00,
2013-07-24 03:58:00,73.8,54.0,29.75,WSW,255,6.9,6.9,50,0.00,OVC,,0.00,WeatherDisplay:10.37,2013-07-24 10:58:00,
2013-07-24 04:03:00,73.5,53.7,29.75,WSW,245,7.0,7.0,50,0.00,OVC,,0.00,WeatherDisplay:10.37,2013-07-24 11:03:00,
2013-07-24 04:09:00,73.1,53.9,29.75,WSW,248,5.8,5.8,51,0.00,OVC,,0.00,WeatherDisplay:10.37,2013-07-24 11:09:00,
2013-07-24 04:14:00,73.0,53.8,29.75,SW,229,5.8,5.8,51,0.00,OVC,,0.00,WeatherDisplay:10.37,2013-07-24 11:14:00,
2013-07-24 04:19:00,72.9,53.7,29.75,WSW,246,5.8,5.8,51,0.00,OVC,,0.00,WeatherDisplay:10.37,2013-07-24 11:19:00,
2013-07-24 04:24:00,72.9,53.7,29.75,SW,233,7.0,7.0,51,0.00,OVC,,0.00,WeatherDisplay:10.37,2013-07-24 11:24:00,
2013-07-24 04:29:00,73.1,53.9,29.75,SW,229,8.0,8.0,51,0.00,OVC,,0.00,WeatherDisplay:10.37,2013-07-24 11:29:00,
2013-07-24 04:35:00,73.0,53.8,29.75,WSW,242,9.2,9.2,51,0.00,OVC,,0.00,WeatherDisplay:10.37,2013-07-24 11:35:00,
2013-07-24 04:40:00,73.0,53.8,29.75,WSW,237,8.0,9.0,51,0.00,CLR,,0.00,WeatherDisplay:10.37,2013-07-24 11:40:00,
2013-07-24 04:45:00,72.6,53.4,29.75,WSW,241,6.0,8.0,51,0.00,CLR,,0.00,WeatherDisplay:10.37,2013-07-24 11:45:00,
2013-07-24 04:50:00,72.5,53.3,29.75,WSW,244,5.0,9.0,51,0.00,CLR,,0.00,WeatherDisplay:10.37,2013-07-24 11:50:00,
2013-07-24 04:55:00,72.4,53.3,29.75,WSW,244,5.0,7.0,51,0.00,CLR,,0.00,WeatherDisplay:10.37,2013-07-24 11:55:00,
2013-07-24 05:00:00,72.2,53.1,29.75,SW,231,6.0,7.0,51,0.00,CLR,,0.00,WeatherDisplay:10.37,2013-07-24 12:00:00,
2013-07-24 05:05:00,71.9,52.8,29.75,SSW,210,5.0,7.0,51,0.00,CLR,,0.00,WeatherDisplay:10.37,2013-07-24 12:05:00,
2013-07-24 05:10:00,71.3,52.3,29.75,SSW,207,3.0,5.0,51,0.00,CLR,,0.00,WeatherDisplay:10.37,2013-07-24 12:10:00,
2013-07-24 05:15:00,71.1,52.6,29.75,SSW,207,2.0,5.0,52,0.00,CLR,,0.00,WeatherDisplay:10.37,2013-07-24 12:15:00,
2013-07-24 05:20:00,71.0,52.5,29.75,SSW,207,2.0,3.0,52,0.00,CLR,,0.00,WeatherDisplay:10.37,2013-07-24 12:20:00,
2013-07-24 05:25:00,71.0,52.5,29.75,SSW,207,2.0,3.0,52,0.00,CLR,,0.00,WeatherDisplay:10.37,2013-07-24 12:25:00,
2013-07-24 05:30:00,70.8,51.8,29.75,SSW,207,2.0,3.0,51,0.00,CLR,,0.00,WeatherDisplay:10.37,2013-07-24 12:30:00,
2013-07-24 05:35:00,70.3,51.8,29.75,SW,224,2.0,4.0,52,0.00,CLR,,0.00,WeatherDisplay:10.37,2013-07-24 12:35:00,
2013-07-24 05:40:00,70.2,52.8,29.75,West,262,0.0,0.0,54,0.00,OVC,,0.00,WeatherDisplay:10.37,2013-07-24 12:40:00,
2013-07-24 05:45:00,69.6,51.2,29.75,West,262,3.5,3.5,52,0.00,OVC,,0.00,WeatherDisplay:10.37,2013-07-24 12:45:00,
2013-07-24 05:50:00,68.6,50.8,29.75,West,262,0.0,0.0,53,0.00,OVC,,0.00,WeatherDisplay:10.37,2013-07-24 12:50:00,
2013-07-24 05:55:00,67.8,50.0,29.75,SSW,194,4.0,4.0,53,0.00,OVC,,0.00,WeatherDisplay:10.37,2013-07-24 12:55:00,
2013-07-24 06:00:00,66.5,48.3,29.75,South,175,6.0,6.0,52,0.00,OVC,,0.00,WeatherDisplay:10.37,2013-07-24 13:00:00,
2013-07-24 06:05:00,64.5,48.4,29.76,SW,225,6.0,6.0,56,0.00,OVC,,0.00,WeatherDisplay:10.37,2013-07-24 13:05:00,
2013-07-24 06:11:00,64.6,48.5,29.76,WSW,256,6.0,6.0,56,0.00,OVC,,0.00,WeatherDisplay:10.37,2013-07-24 13:11:00,
2013-07-24 06:16:00,65.8,51.1,29.76,WSW,257,5.0,5.0,59,0.00,OVC,,0.00,WeatherDisplay:10.37,2013-07-24 13:16:00,
2013-07-24 06:22:00,66.4,50.7,29.76,WSW,257,3.5,3.5,57,0.00,OVC,,0.00,WeatherDisplay:10.37,2013-07-24 13:22:00,
2013-07-24 06:27:00,66.7,51.5,29.76,WSW,257,4.0,4.0,58,0.00,OVC,,0.00,WeatherDisplay:10.37,2013-07-24 13:27:00,
2013-07-24 06:32:00,67.6,51.3,29.76,WSW,257,3.5,3.5,56,0.00,OVC,,0.00,WeatherDisplay:10.37,2013-07-24 13:32:00,
2013-07-24 06:37:00,67.8,51.0,29.76,WSW,257,3.5,3.5,55,0.00,OVC,,0.00,WeatherDisplay:10.37,2013-07-24 13:37:00,
2013-07-24 06:42:00,68.2,51.4,29.76,WSW,257,0.0,0.0,55,0.00,OVC,,0.00,WeatherDisplay:10.37,2013-07-24 13:42:00,
2013-07-24 06:47:00,68.6,51.8,29.76,WSW,257,2.3,2.3,55,0.00,OVC,,0.00,WeatherDisplay:10.37,2013-07-24 13:47:00,
2013-07-24 06:53:00,69.3,51.9,29.76,South,182,3.5,3.5,54,0.00,OVC,,0.00,WeatherDisplay:10.37,2013-07-24 13:53:00,
2013-07-24 06:58:00,70.1,52.2,29.76,South,182,3.5,3.5,53,0.00,OVC,,0.00,WeatherDisplay:10.37,2013-07-24 13:58:00,
2013-07-24 07:03:00,71.0,52.5,29.76,South,182,3.5,3.5,52,0.00,OVC,,0.00,WeatherDisplay:10.37,2013-07-24 14:03:00,
2013-07-24 07:08:00,71.9,52.8,29.76,SSW,194,4.0,4.0,51,0.00,OVC,,0.00,WeatherDisplay:10.37,2013-07-24 14:08:00,
2013-07-24 07:13:00,72.4,52.7,29.76,South,187,3.5,3.5,50,0.00,OVC,,0.00,WeatherDisplay:10.37,2013-07-24 14:13:00,
2013-07-24 07:18:00,73.0,53.3,29.76,South,184,6.0,6.0,50,0.00,OVC,,0.00,WeatherDisplay:10.37,2013-07-24 14:18:00,
2013-07-24 07:23:00,73.7,52.8,29.76,SSW,200,7.0,7.0,48,0.00,OVC,,0.00,WeatherDisplay:10.37,2013-07-24 14:23:00,
2013-07-24 07:28:00,74.5,53.5,29.76,SSW,200,5.0,5.0,48,0.00,CLR,,0.00,WeatherDisplay:10.37,2013-07-24 14:28:00,
2013-07-24 07:34:00,75.1,53.5,29.76,SW,235,6.0,6.0,47,0.00,OVC,,0.00,WeatherDisplay:10.37,2013-07-24 14:34:00,
2013-07-24 07:39:00,75.7,54.0,29.76,West,259,5.8,5.8,47,0.00,OVC,,0.00,WeatherDisplay:10.37,2013-07-24 14:39:00,
2013-07-24 07:44:00,76.2,53.9,29.76,WSW,258,4.6,4.6,46,0.00,OVC,,0.00,WeatherDisplay:10.37,2013-07-24 14:44:00,
2013-07-24 07:49:00,76.6,53.7,29.76,SW,231,5.0,5.0,45,0.00,OVC,,0.00,WeatherDisplay:10.37,2013-07-24 14:49:00,
2013-07-24 07:54:00,77.1,54.1,29.76,West,266,3.5,3.5,45,0.00,OVC,,0.00,WeatherDisplay:10.37,2013-07-24 14:54:00,
2013-07-24 07:59:00,77.6,54.0,29.76,West,264,2.3,2.3,44,0.00,OVC,,0.00,WeatherDisplay:10.37,2013-07-24 14:59:00,
2013-07-24 08:04:00,78.1,54.4,29.76,West,264,3.5,3.5,44,0.00,OVC,,0.00,WeatherDisplay:10.37,2013-07-24 15:04:00,
2013-07-24 08:09:00,78.7,54.3,29.76,West,264,2.3,2.3,43,0.00,OVC,,0.00,WeatherDisplay:10.37,2013-07-24 15:09:00,
2013-07-24 08:14:00,79.3,54.9,29.76,West,264,0.0,0.0,43,0.00,OVC,,0.00,WeatherDisplay:10.37,2013-07-24 15:14:00,
2013-07-24 08:20:00,80.8,55.6,29.76,West,264,0.0,0.0,42,0.00,OVC,,0.00,WeatherDisplay:10.37,2013-07-24 15:20:00,
2013-07-24 08:25:00,81.6,55.0,29.76,WNW,301,0.0,1.0,40,0.00,CLR,,0.00,WeatherDisplay:10.37,2013-07-24 15:25:00,
2013-07-24 08:30:00,82.8,55.3,29.76,NW,325,0.0,3.0,39,0.00,CLR,,0.00,WeatherDisplay:10.37,2013-07-24 15:30:00,
2013-07-24 08:35:00,83.6,55.3,29.76,NNW,339,1.0,3.0,38,0.00,CLR,,0.00,WeatherDisplay:10.37,2013-07-24 15:35:00,
2013-07-24 08:40:00,83.5,55.2,29.76,ESE,107,3.0,5.0,38,0.00,CLR,,0.00,WeatherDisplay:10.37,2013-07-24 15:40:00,
2013-07-24 08:45:00,83.2,55.0,29.76,ESE,105,4.6,4.6,38,0.00,OVC,,0.00,WeatherDisplay:10.37,2013-07-24 15:45:00,
2013-07-24 08:50:00,83.4,55.9,29.76,ESE,102,3.0,5.0,39,0.00,CLR,,0.00,WeatherDisplay:10.37,2013-07-24 15:50:00,
2013-07-24 08:55:00,83.8,55.5,29.76,East,90,6.0,6.0,38,0.00,CLR,,0.00,WeatherDisplay:10.37,2013-07-24 15:55:00,
2013-07-24 09:00:00,84.0,54.9,29.76,East,91,0.0,3.0,37,0.00,CLR,,0.00,WeatherDisplay:10.37,2013-07-24 16:00:00,
2013-07-24 09:05:00,84.4,55.3,29.76,East,91,3.0,5.0,37,0.00,CLR,,0.00,WeatherDisplay:10.37,2013-07-24 16:05:00,
2013-07-24 09:10:00,84.8,55.6,29.76,East,97,2.0,4.0,37,0.00,CLR,,0.00,WeatherDisplay:10.37,2013-07-24 16:10:00,
2013-07-24 09:15:00,84.9,54.9,29.76,ESE,102,3.0,6.0,36,0.00,CLR,,0.00,WeatherDisplay:10.37,2013-07-24 16:15:00,
2013-07-24 09:20:00,85.6,54.8,29.76,East,101,5.0,7.0,35,0.00,CLR,,0.00,WeatherDisplay:10.37,2013-07-24 16:20:00,
2013-07-24 09:25:00,86.3,54.7,29.76,ENE,63,3.0,7.0,34,0.00,CLR,,0.00,WeatherDisplay:10.37,2013-07-24 16:25:00,
2013-07-24 09:30:00,87.0,55.2,29.76,East,87,9.2,9.2,34,0.00,OVC,,0.00,WeatherDisplay:10.37,2013-07-24 16:30:00,
2013-07-24 09:35:00,87.0,54.4,29.76,East,89,6.0,9.0,33,0.00,CLR,,0.00,WeatherDisplay:10.37,2013-07-24 16:35:00,
2013-07-24 09:40:00,87.1,54.5,29.76,East,91,5.0,9.0,33,0.00,CLR,,0.00,WeatherDisplay:10.37,2013-07-24 16:40:00,
2013-07-24 09:45:00,87.4,54.8,29.76,East,84,3.0,9.0,33,0.00,CLR,,0.00,WeatherDisplay:10.37,2013-07-24 16:45:00,
2013-07-24 09:50:00,88.3,54.7,29.76,ENE,75,1.0,8.0,32,0.00,CLR,,0.00,WeatherDisplay:10.37,2013-07-24 16:50:00,
2013-07-24 09:55:00,89.3,55.6,29.76,ENE,67,2.0,8.0,32,0.00,CLR,,0.00,WeatherDisplay:10.37,2013-07-24 16:55:00,
2013-07-24 10:00:00,88.8,55.1,29.76,East,84,5.0,8.0,32,0.00,CLR,,0.00,WeatherDisplay:10.37,2013-07-24 17:00:00,
2013-07-24 10:05:00,89.2,55.5,29.76,East,80,5.0,9.0,32,0.00,CLR,,0.00,WeatherDisplay:10.37,2013-07-24 17:05:00,
2013-07-24 10:10:00,89.2,55.5,29.76,East,89,8.0,12.0,32,0.00,CLR,,0.00,WeatherDisplay:10.37,2013-07-24 17:10:00,
2013-07-24 10:15:00,89.2,55.5,29.76,East,96,3.0,10.0,32,0.00,CLR,,0.00,WeatherDisplay:10.37,2013-07-24 17:15:00,
2013-07-24 10:20:00,90.0,56.2,29.75,East,96,2.0,7.0,32,0.00,CLR,,0.00,WeatherDisplay:10.37,2013-07-24 17:20:00,
2013-07-24 10:25:00,89.9,56.1,29.75,South,180,6.9,6.9,32,0.00,OVC,,0.00,WeatherDisplay:10.37,2013-07-24 17:25:00,
2013-07-24 10:30:00,90.1,56.3,29.75,SSE,153,5.0,12.0,32,0.00,CLR,,0.00,WeatherDisplay:10.37,2013-07-24 17:30:00,
2013-07-24 10:35:00,90.2,56.4,29.75,SSE,148,8.0,12.0,32,0.00,CLR,,0.00,WeatherDisplay:10.37,2013-07-24 17:35:00,
2013-07-24 10:40:00,90.0,56.2,29.75,SE,135,7.0,12.0,32,0.00,CLR,,0.00,WeatherDisplay:10.37,2013-07-24 17:40:00,
2013-07-24 10:45:00,90.3,56.4,29.75,SE,128,8.0,12.0,32,0.00,CLR,,0.00,WeatherDisplay:10.37,2013-07-24 17:45:00,
2013-07-24 10:50:00,90.6,56.7,29.75,SE,128,1.0,8.0,32,0.00,CLR,,0.00,WeatherDisplay:10.37,2013-07-24 17:50:00,
2013-07-24 10:55:00,91.9,56.9,29.74,SSE,158,9.0,9.0,31,0.00,OVC,,0.00,WeatherDisplay:10.37,2013-07-24 17:55:00,
2013-07-24 11:00:00,92.2,56.3,29.74,SE,144,13.0,13.0,30,0.00,OVC,,0.00,WeatherDisplay:10.37,2013-07-24 18:00:00,
2013-07-24 11:05:00,92.0,55.2,29.74,SSE,153,12.7,12.7,29,0.00,OVC,,0.00,WeatherDisplay:10.37,2013-07-24 18:05:00,
2013-07-24 11:10:00,92.0,55.2,29.74,SSE,166,12.7,12.7,29,0.00,OVC,,0.00,WeatherDisplay:10.37,2013-07-24 18:10:00,
2013-07-24 11:16:00,92.0,55.2,29.74,South,190,11.5,11.5,29,0.00,OVC,,0.00,WeatherDisplay:10.37,2013-07-24 18:16:00,
2013-07-24 11:21:00,91.9,55.1,29.74,SW,225,10.4,10.4,29,0.00,OVC,,0.00,WeatherDisplay:10.37,2013-07-24 18:21:00,
2013-07-24 11:26:00,92.0,55.2,29.74,South,180,6.9,6.9,29,0.00,OVC,,0.00,WeatherDisplay:10.37,2013-07-24 18:26:00,
2013-07-24 11:31:00,92.4,55.5,29.74,SE,136,12.0,12.0,29,0.00,OVC,,0.00,WeatherDisplay:10.37,2013-07-24 18:31:00,
2013-07-24 11:36:00,92.2,55.4,29.74,SSW,196,9.2,9.2,29,0.00,OVC,,0.00,WeatherDisplay:10.37,2013-07-24 18:36:00,
2013-07-24 11:42:00,92.3,54.5,29.74,West,277,11.5,11.5,28,0.00,OVC,,0.00,WeatherDisplay:10.37,2013-07-24 18:42:00,
2013-07-24 11:47:00,93.2,55.2,29.74,SSW,194,13.0,13.0,28,0.00,OVC,,0.00,WeatherDisplay:10.37,2013-07-24 18:47:00,
2013-07-24 11:52:00,92.9,55.0,29.74,WNW,286,8.1,8.1,28,0.00,OVC,,0.00,WeatherDisplay:10.37,2013-07-24 18:52:00,
2013-07-24 11:57:00,93.2,55.2,29.74,WNW,283,8.1,8.1,28,0.00,OVC,,0.00,WeatherDisplay:10.37,2013-07-24 18:57:00,
2013-07-24 12:02:00,93.5,55.5,29.74,SSE,150,10.4,10.4,28,0.00,OVC,,0.00,WeatherDisplay:10.37,2013-07-24 19:02:00,
2013-07-24 12:07:00,94.5,55.4,29.73,NE,35,3.5,3.5,27,0.00,OVC,,0.00,WeatherDisplay:10.37,2013-07-24 19:07:00,
2013-07-24 12:13:00,96.5,56.0,29.73,NW,304,6.9,6.9,26,0.00,OVC,,0.00,WeatherDisplay:10.37,2013-07-24 19:13:00,
2013-07-24 12:18:00,96.6,55.0,29.72,ENE,67,17.3,17.3,25,0.00,OVC,,0.00,WeatherDisplay:10.37,2013-07-24 19:18:00,
2013-07-24 12:23:00,95.7,54.3,29.73,South,180,12.7,12.7,25,0.00,OVC,,0.00,WeatherDisplay:10.37,2013-07-24 19:23:00,
2013-07-24 12:28:00,95.0,54.7,29.73,South,183,11.5,11.5,26,0.00,OVC,,0.00,WeatherDisplay:10.37,2013-07-24 19:28:00,
2013-07-24 12:34:00,95.2,54.9,29.73,South,176,6.0,6.0,26,0.00,OVC,,0.00,WeatherDisplay:10.37,2013-07-24 19:34:00,
2013-07-24 12:39:00,95.8,55.4,29.73,SSE,155,6.9,6.9,26,0.00,OVC,,0.00,WeatherDisplay:10.37,2013-07-24 19:39:00,
2013-07-24 12:44:00,96.2,54.7,29.73,NW,321,4.6,4.6,25,0.00,OVC,,0.00,WeatherDisplay:10.37,2013-07-24 19:44:00,
2013-07-24 12:49:00,97.1,54.3,29.72,NNE,15,3.5,3.5,24,0.00,OVC,,0.00,WeatherDisplay:10.37,2013-07-24 19:49:00,
2013-07-24 12:54:00,98.5,55.5,29.72,North,9,1.1,1.1,24,0.00,OVC,,0.00,WeatherDisplay:10.37,2013-07-24 19:54:00,
2013-07-24 12:59:00,99.6,54.0,29.72,South,169,7.0,7.0,22,0.00,OVC,,0.00,WeatherDisplay:10.37,2013-07-24 19:59:00,
2013-07-24 13:04:00,98.8,53.3,29.72,West,259,16.1,16.1,22,0.00,OVC,,0.00,WeatherDisplay:10.37,2013-07-24 20:04:00,
2013-07-24 13:09:00,97.5,53.5,29.72,North,351,11.5,11.5,23,0.00,OVC,,0.00,WeatherDisplay:10.37,2013-07-24 20:09:00,
2013-07-24 13:15:00,97.8,53.7,29.71,ESE,111,9.2,9.2,23,0.00,OVC,,0.00,WeatherDisplay:10.37,2013-07-24 20:15:00,
2013-07-24 13:20:00,97.3,53.3,29.71,ESE,115,8.0,13.0,23,0.00,CLR,,0.00,WeatherDisplay:10.37,2013-07-24 20:20:00,
2013-07-24 13:25:00,97.0,54.2,29.71,South,177,9.2,9.2,24,0.00,OVC,,0.00,WeatherDisplay:10.37,2013-07-24 20:25:00,
2013-07-24 13:30:00,97.7,53.6,29.71,SE,143,16.0,16.0,23,0.00,OVC,,0.00,WeatherDisplay:10.37,2013-07-24 20:30:00,
2013-07-24 13:35:00,98.1,52.8,29.70,South,169,18.0,18.0,22,0.00,OVC,,0.00,WeatherDisplay:10.37,2013-07-24 20:35:00,
2013-07-24 13:40:00,98.4,53.0,29.71,SE,141,22.0,22.0,22,0.00,OVC,,0.00,WeatherDisplay:10.37,2013-07-24 20:40:00,
2013-07-24 13:45:00,97.4,53.4,29.70,SSE,153,15.0,15.0,23,0.00,OVC,,0.00,WeatherDisplay:10.37,2013-07-24 20:45:00,
2013-07-24 13:50:00,97.9,52.6,29.70,SSE,163,15.0,15.0,22,0.00,OVC,,0.00,WeatherDisplay:10.37,2013-07-24 20:50:00,
2013-07-24 13:55:00,98.3,52.9,29.70,SSE,153,22.0,22.0,22,0.00,OVC,,0.00,WeatherDisplay:10.37,2013-07-24 20:55:00,
2013-07-24 14:01:00,98.7,52.0,29.70,SSE,155,21.9,21.9,21,0.00,OVC,,0.00,WeatherDisplay:10.37,2013-07-24 21:01:00,
2013-07-24 14:06:00,98.7,52.0,29.70,SSE,150,20.7,20.7,21,0.00,OVC,,0.00,WeatherDisplay:10.37,2013-07-24 21:06:00,
2013-07-24 14:11:00,98.1,51.5,29.69,ESE,115,19.6,19.6,21,0.00,OVC,,0.00,WeatherDisplay:10.37,2013-07-24 21:11:00,
2013-07-24 14:16:00,99.7,50.1,29.69,SSE,164,29.9,29.9,19,0.00,OVC,,0.00,WeatherDisplay:10.37,2013-07-24 21:16:00,
2013-07-24 14:22:00,99.7,50.1,29.69,SSE,158,19.6,19.6,19,0.00,OVC,,0.00,WeatherDisplay:10.37,2013-07-24 21:22:00,
2013-07-24 14:27:00,99.2,49.7,29.69,SSE,154,29.0,29.0,19,0.00,OVC,,0.00,WeatherDisplay:10.37,2013-07-24 21:27:00,
2013-07-24 14:32:00,99.5,48.5,29.69,SE,145,23.0,23.0,18,0.00,OVC,,0.00,WeatherDisplay:10.37,2013-07-24 21:32:00,
2013-07-24 14:37:00,99.6,48.6,29.69,SSE,150,22.0,22.0,18,0.00,OVC,,0.00,WeatherDisplay:10.37,2013-07-24 21:37:00,
2013-07-24 14:42:00,99.8,48.7,29.68,South,180,29.9,29.9,18,0.00,OVC,,0.00,WeatherDisplay:10.37,2013-07-24 21:42:00,
2013-07-24 14:47:00,99.5,48.5,29.68,SSE,153,25.0,25.0,18,0.00,OVC,,0.00,WeatherDisplay:10.37,2013-07-24 21:47:00,
2013-07-24 14:53:00,100.4,49.2,29.67,South,184,46.0,46.0,18,0.00,OVC,,0.00,WeatherDisplay:10.37,2013-07-24 21:53:00,
2013-07-24 14:58:00,99.6,48.6,29.68,WNW,292,16.1,16.1,18,0.00,OVC,,0.00,WeatherDisplay:10.37,2013-07-24 21:58:00,
2013-07-24 15:03:00,100.5,49.3,29.64,West,263,26.5,26.5,18,0.00,OVC,,0.00,WeatherDisplay:10.37,2013-07-24 22:03:00,
2013-07-24 15:08:00,100.7,47.9,29.66,North,360,10.4,10.4,17,0.00,OVC,,0.00,WeatherDisplay:10.37,2013-07-24 22:08:00,
2013-07-24 15:13:00,101.6,47.0,29.67,WNW,302,16.1,16.1,16,0.00,OVC,,0.00,WeatherDisplay:10.37,2013-07-24 22:13:00,
2013-07-24 15:18:00,100.7,47.9,29.67,WNW,290,13.8,13.8,17,0.00,OVC,,0.00,WeatherDisplay:10.37,2013-07-24 22:18:00,
2013-07-24 15:23:00,100.3,47.6,29.67,WNW,294,7.0,7.0,17,0.00,OVC,,0.00,WeatherDisplay:10.37,2013-07-24 22:23:00,
2013-07-24 15:28:00,100.4,47.7,29.67,WNW,286,10.4,10.4,17,0.00,OVC,,0.00,WeatherDisplay:10.37,2013-07-24 22:28:00,
2013-07-24 15:34:00,101.2,45.0,29.67,WNW,287,18.4,18.4,15,0.00,OVC,,0.00,WeatherDisplay:10.37,2013-07-24 22:34:00,
2013-07-24 15:39:00,100.2,45.9,29.66,WSW,246,17.3,17.3,16,0.00,OVC,,0.00,WeatherDisplay:10.37,2013-07-24 22:39:00,
2013-07-24 15:44:00,100.5,44.5,29.66,WNW,287,10.4,10.4,15,0.00,OVC,,0.00,WeatherDisplay:10.37,2013-07-24 22:44:00,
2013-07-24 15:49:00,100.7,46.3,29.66,WSW,246,17.3,17.3,16,0.00,OVC,,0.00,WeatherDisplay:10.37,2013-07-24 22:49:00,
2013-07-24 15:55:00,99.5,48.5,29.66,SW,229,8.1,8.1,18,0.00,OVC,,0.00,WeatherDisplay:10.37,2013-07-24 22:55:00,
2013-07-24 16:00:00,99.8,47.2,29.66,SSW,211,14.0,14.0,17,0.00,OVC,,0.00,WeatherDisplay:10.37,2013-07-24 23:00:00,
2013-07-24 16:05:00,99.0,48.1,29.66,SW,220,3.0,17.0,18,0.00,CLR,,0.00,WeatherDisplay:10.37,2013-07-24 23:05:00,
2013-07-24 16:10:00,99.2,46.7,29.66,SW,221,16.0,20.0,17,0.00,CLR,,0.00,WeatherDisplay:10.37,2013-07-24 23:10:00,
2013-07-24 16:15:00,98.5,47.7,29.66,SW,222,8.0,16.0,18,0.00,CLR,,0.00,WeatherDisplay:10.37,2013-07-24 23:15:00,
2013-07-24 16:20:00,99.0,44.9,29.66,SSW,208,18.0,22.0,16,0.00,CLR,,0.00,WeatherDisplay:10.37,2013-07-24 23:20:00,
2013-07-24 16:25:00,98.8,44.8,29.66,SW,214,20.0,23.0,16,0.00,CLR,,0.00,WeatherDisplay:10.37,2013-07-24 23:25:00,
2013-07-24 16:30:00,98.4,42.8,29.66,West,267,19.6,19.6,15,0.00,CLR,,0.00,WeatherDisplay:10.37,2013-07-24 23:30:00,
2013-07-24 16:35:00,98.5,42.9,29.66,WSW,244,8.1,8.1,15,0.00,CLR,,0.00,WeatherDisplay:10.37,2013-07-24 23:35:00,
2013-07-24 16:40:00,98.7,43.0,29.66,WSW,244,21.9,21.9,15,0.00,CLR,,0.00,WeatherDisplay:10.37,2013-07-24 23:40:00,
2013-07-24 16:45:00,97.7,45.5,29.66,WSW,242,21.9,21.9,17,0.00,CLR,,0.00,WeatherDisplay:10.37,2013-07-24 23:45:00,
2013-07-24 16:51:00,98.5,42.9,29.66,SSW,201,26.5,26.5,15,0.00,CLR,,0.00,WeatherDisplay:10.37,2013-07-24 23:51:00,
2013-07-24 16:56:00,98.3,44.4,29.66,SW,228,22.0,22.0,16,0.00,CLR,,0.00,WeatherDisplay:10.37,2013-07-24 23:56:00,
2013-07-24 17:01:00,98.0,47.3,29.66,SW,220,22.0,22.0,18,0.00,CLR,,0.00,WeatherDisplay:10.37,2013-07-25 00:01:00,
2013-07-24 17:06:00,98.2,47.4,29.65,SSW,207,23.0,23.0,18,0.00,CLR,,0.00,WeatherDisplay:10.37,2013-07-25 00:06:00,
2013-07-24 17:11:00,97.7,47.0,29.65,SW,224,23.0,23.0,18,0.00,CLR,,0.00,WeatherDisplay:10.37,2013-07-25 00:11:00,
2013-07-24 17:17:00,97.5,48.3,29.65,SSW,202,20.0,20.0,19,0.00,CLR,,0.00,WeatherDisplay:10.37,2013-07-25 00:17:00,
2013-07-24 17:22:00,97.2,46.6,29.65,SW,222,19.6,19.6,18,0.00,CLR,,0.00,WeatherDisplay:10.37,2013-07-25 00:22:00,
2013-07-24 17:27:00,97.3,46.7,29.65,SW,226,23.0,23.0,18,0.00,CLR,,0.00,WeatherDisplay:10.37,2013-07-25 00:27:00,
2013-07-24 17:32:00,97.0,49.3,29.65,SW,223,23.0,23.0,20,0.00,CLR,,0.00,WeatherDisplay:10.37,2013-07-25 00:32:00,
2013-07-24 17:37:00,97.0,46.5,29.65,South,187,21.0,21.0,18,0.00,CLR,,0.00,WeatherDisplay:10.37,2013-07-25 00:37:00,
2013-07-24 17:42:00,96.5,50.2,29.65,SW,218,25.3,25.3,21,0.00,CLR,,0.00,WeatherDisplay:10.37,2013-07-25 00:42:00,
2013-07-24 17:47:00,95.8,48.3,29.65,SW,229,22.0,22.0,20,0.00,CLR,,0.00,WeatherDisplay:10.37,2013-07-25 00:47:00,
2013-07-24 17:52:00,95.5,50.6,29.65,SW,231,23.0,23.0,22,0.00,CLR,,0.00,WeatherDisplay:10.37,2013-07-25 00:52:00,
2013-07-24 17:57:00,95.4,50.5,29.65,SSW,209,25.3,25.3,22,0.00,CLR,,0.00,WeatherDisplay:10.37,2013-07-25 00:57:00,
2013-07-24 18:02:00,95.5,50.6,29.65,SW,224,20.0,20.0,22,0.00,OVC,,0.00,WeatherDisplay:10.37,2013-07-25 01:02:00,
2013-07-24 18:08:00,94.7,49.9,29.65,SW,235,21.0,21.0,22,0.00,OVC,,0.00,WeatherDisplay:10.37,2013-07-25 01:08:00,
2013-07-24 18:13:00,94.3,50.8,29.65,SW,234,21.9,21.9,23,0.00,OVC,,0.00,WeatherDisplay:10.37,2013-07-25 01:13:00,
2013-07-24 18:18:00,94.2,49.5,29.65,SSW,200,19.6,19.6,22,0.00,OVC,,0.00,WeatherDisplay:10.37,2013-07-25 01:18:00,
2013-07-24 18:24:00,93.2,51.0,29.65,SW,228,23.0,23.0,24,0.00,OVC,,0.00,WeatherDisplay:10.37,2013-07-25 01:24:00,
2013-07-24 18:29:00,93.4,50.1,29.65,SSW,204,21.9,21.9,23,0.00,OVC,,0.00,WeatherDisplay:10.37,2013-07-25 01:29:00,
2013-07-24 18:34:00,92.9,50.8,29.65,SSW,209,19.6,19.6,24,0.00,OVC,,0.00,WeatherDisplay:10.37,2013-07-25 01:34:00,
2013-07-24 18:39:00,92.3,51.4,29.65,SSW,196,19.6,19.6,25,0.00,OVC,,0.00,WeatherDisplay:10.37,2013-07-25 01:39:00,
2013-07-24 18:44:00,91.5,51.8,29.65,SSW,209,24.0,24.0,26,0.00,OVC,,0.00,WeatherDisplay:10.37,2013-07-25 01:44:00,
2013-07-24 18:49:00,91.0,51.4,29.65,SW,216,26.5,26.5,26,0.00,OVC,,0.00,WeatherDisplay:10.37,2013-07-25 01:49:00,
2013-07-24 18:55:00,91.0,51.4,29.66,SW,227,20.7,20.7,26,0.00,OVC,,0.00,WeatherDisplay:10.37,2013-07-25 01:55:00,
2013-07-24 19:00:00,90.7,52.1,29.66,SSW,204,24.2,24.2,27,0.00,OVC,,0.00,WeatherDisplay:10.37,2013-07-25 02:00:00,
2013-07-24 19:05:00,90.7,51.1,29.66,SSW,197,20.7,20.7,26,0.00,OVC,,0.00,WeatherDisplay:10.37,2013-07-25 02:05:00,
2013-07-24 19:10:00,90.3,51.8,29.66,SSW,212,27.6,27.6,27,0.00,OVC,,0.00,WeatherDisplay:10.37,2013-07-25 02:10:00,
2013-07-24 19:15:00,90.0,51.5,29.66,SSW,204,22.0,25.0,27,0.00,CLR,,0.00,WeatherDisplay:10.37,2013-07-25 02:15:00,
2013-07-24 19:20:00,89.7,51.2,29.66,SSW,209,25.0,31.0,27,0.00,CLR,,0.00,WeatherDisplay:10.37,2013-07-25 02:20:00,
2013-07-24 19:25:00,89.4,51.0,29.66,SW,215,25.0,30.0,27,0.00,CLR,,0.00,WeatherDisplay:10.37,2013-07-25 02:25:00,
2013-07-24 19:30:00,89.1,50.8,29.66,SW,214,22.0,29.0,27,0.00,CLR,,0.00,WeatherDisplay:10.37,2013-07-25 02:30:00,
2013-07-24 19:35:00,89.2,50.8,29.66,SSW,209,20.0,24.0,27,0.00,CLR,,0.00,WeatherDisplay:10.37,2013-07-25 02:35:00,
2013-07-24 19:40:00,88.6,51.3,29.67,SSW,198,16.0,21.0,28,0.00,CLR,,0.00,WeatherDisplay:10.37,2013-07-25 02:40:00,
2013-07-24 19:45:00,88.2,51.0,29.66,SSW,205,24.0,28.0,28,0.00,CLR,,0.00,WeatherDisplay:10.37,2013-07-25 02:45:00,
2013-07-24 19:50:00,87.8,50.7,29.67,SSW,208,21.0,24.0,28,0.00,CLR,,0.00,WeatherDisplay:10.37,2013-07-25 02:50:00,
2013-07-24 19:55:00,87.6,50.5,29.67,SSW,212,25.0,28.0,28,0.00,CLR,,0.00,WeatherDisplay:10.37,2013-07-25 02:55:00,
2013-07-24 20:00:00,87.5,50.4,29.67,SW,222,23.0,32.0,28,0.00,CLR,,0.00,WeatherDisplay:10.37,2013-07-25 03:00:00,
2013-07-24 20:06:00,87.2,50.1,29.67,SSW,196,23.0,23.0,28,0.00,OVC,,0.00,WeatherDisplay:10.37,2013-07-25 03:06:00,
2013-07-24 20:12:00,86.9,49.9,29.67,SSW,203,24.2,24.2,28,0.00,OVC,,0.00,WeatherDisplay:10.37,2013-07-25 03:12:00,
2013-07-24 20:17:00,86.8,50.7,29.67,SW,223,31.0,31.0,29,0.00,OVC,,0.00,WeatherDisplay:10.37,2013-07-25 03:17:00,
2013-07-24 20:22:00,86.6,49.6,29.67,South,191,24.0,24.0,28,0.00,OVC,,0.00,WeatherDisplay:10.37,2013-07-25 03:22:00,
2013-07-24 20:27:00,86.3,50.3,29.67,SSW,194,21.0,21.0,29,0.00,OVC,,0.00,WeatherDisplay:10.37,2013-07-25 03:27:00,
2013-07-24 20:33:00,86.1,50.1,29.67,SW,220,21.9,21.9,29,0.00,OVC,,0.00,WeatherDisplay:10.37,2013-07-25 03:33:00,
2013-07-24 20:38:00,86.3,50.3,29.67,SW,222,27.6,27.6,29,0.00,OVC,,0.00,WeatherDisplay:10.37,2013-07-25 03:38:00,
2013-07-24 20:43:00,86.3,50.3,29.68,SSW,205,26.0,26.0,29,0.00,OVC,,0.00,WeatherDisplay:10.37,2013-07-25 03:43:00,
2013-07-24 20:49:00,86.0,51.0,29.69,SSW,205,24.2,24.2,30,0.00,OVC,,0.00,WeatherDisplay:10.37,2013-07-25 03:49:00,
2013-07-24 20:54:00,86.1,51.0,29.69,SSW,199,29.9,29.9,30,0.00,OVC,,0.00,WeatherDisplay:10.37,2013-07-25 03:54:00,
2013-07-24 20:59:00,85.8,49.9,29.69,SSW,199,17.3,17.3,29,0.00,OVC,,0.00,WeatherDisplay:10.37,2013-07-25 03:59:00,
2013-07-24 21:01:00,85.6,49.7,29.69,SSW,192,26.0,26.0,29,0.00,OVC,,0.00,WeatherDisplay:10.37,2013-07-25 04:01:00,
2013-07-24 21:02:00,85.7,50.7,29.69,SSW,199,26.5,26.5,30,0.00,CLR,,0.00,WeatherDisplay:10.37,2013-07-25 04:02:00,
2013-07-24 21:07:00,85.7,49.8,29.69,SSW,203,24.0,24.0,29,0.00,CLR,,0.00,WeatherDisplay:10.37,2013-07-25 04:07:00,
2013-07-24 21:12:00,85.6,50.6,29.69,SSW,192,24.0,24.0,30,0.00,CLR,,0.00,WeatherDisplay:10.37,2013-07-25 04:12:00,
2013-07-24 21:18:00,85.9,50.9,29.69,SSW,210,25.3,25.3,30,0.00,CLR,,0.00,WeatherDisplay:10.37,2013-07-25 04:18:00,
2013-07-24 21:23:00,85.7,50.7,29.69,SW,217,24.2,24.2,30,0.00,CLR,,0.00,WeatherDisplay:10.37,2013-07-25 04:23:00,
2013-07-24 21:28:00,85.6,50.6,29.69,SSW,199,23.0,23.0,30,0.00,CLR,,0.00,WeatherDisplay:10.37,2013-07-25 04:28:00,
2013-07-24 21:33:00,85.4,50.4,29.70,SSW,196,21.9,21.9,30,0.00,CLR,,0.00,WeatherDisplay:10.37,2013-07-25 04:33:00,
2013-07-24 21:38:00,85.4,51.3,29.70,SSW,193,21.9,21.9,31,0.00,CLR,,0.00,WeatherDisplay:10.37,2013-07-25 04:38:00,
2013-07-24 21:43:00,85.2,51.1,29.70,SSW,199,20.7,20.7,31,0.00,CLR,,0.00,WeatherDisplay:10.37,2013-07-25 04:43:00,
2013-07-24 21:49:00,85.5,51.4,29.70,SSW,198,19.6,19.6,31,0.00,CLR,,0.00,WeatherDisplay:10.37,2013-07-25 04:49:00,
2013-07-24 21:54:00,85.3,51.2,29.70,SSW,193,21.9,21.9,31,0.00,CLR,,0.00,WeatherDisplay:10.37,2013-07-25 04:54:00,
2013-07-24 21:59:00,85.4,51.3,29.69,South,180,19.6,19.6,31,0.00,CLR,,0.00,WeatherDisplay:10.37,2013-07-25 04:59:00,
2013-07-24 22:04:00,85.0,51.0,29.70,SSW,202,17.3,17.3,31,0.00,OVC,,0.00,WeatherDisplay:10.37,2013-07-25 05:04:00,
2013-07-24 22:09:00,85.2,52.0,29.70,SSW,198,21.9,21.9,32,0.00,OVC,,0.00,WeatherDisplay:10.37,2013-07-25 05:09:00,
2013-07-24 22:15:00,85.3,51.2,29.70,SW,219,20.7,20.7,31,0.00,OVC,,0.00,WeatherDisplay:10.37,2013-07-25 05:15:00,
2013-07-24 22:20:00,85.1,51.1,29.70,SSW,192,14.0,20.0,31,0.00,CLR,,0.00,WeatherDisplay:10.37,2013-07-25 05:20:00,
2013-07-24 22:25:00,85.1,51.0,29.70,South,190,17.0,21.0,31,0.00,CLR,,0.00,WeatherDisplay:10.37,2013-07-25 05:25:00,
2013-07-24 22:30:00,85.2,51.1,29.70,South,189,14.0,16.0,31,0.00,CLR,,0.00,WeatherDisplay:10.37,2013-07-25 05:30:00,
2013-07-24 22:35:00,85.0,51.0,29.70,SSW,194,12.0,18.0,31,0.00,CLR,,0.00,WeatherDisplay:10.37,2013-07-25 05:35:00,
2013-07-24 22:40:00,85.1,51.1,29.70,South,191,14.0,18.0,31,0.00,CLR,,0.00,WeatherDisplay:10.37,2013-07-25 05:40:00,
2013-07-24 22:45:00,84.8,50.8,29.69,South,191,10.0,13.0,31,0.00,CLR,,0.00,WeatherDisplay:10.37,2013-07-25 05:45:00,
2013-07-24 22:50:00,85.1,50.2,29.69,South,187,10.0,16.0,30,0.00,CLR,,0.00,WeatherDisplay:10.37,2013-07-25 05:50:00,
2013-07-24 22:55:00,84.8,49.9,29.69,South,186,9.0,14.0,30,0.00,CLR,,0.00,WeatherDisplay:10.37,2013-07-25 05:55:00,
2013-07-24 23:00:00,84.7,49.9,29.70,SSW,200,12.0,20.0,30,0.00,CLR,,0.00,WeatherDisplay:10.37,2013-07-25 06:00:00,
2013-07-24 23:05:00,85.3,49.4,29.69,SSW,206,14.0,17.0,29,0.00,CLR,,0.00,WeatherDisplay:10.37,2013-07-25 06:05:00,
2013-07-24 23:10:00,85.3,49.5,29.70,SSW,205,9.0,16.0,29,0.00,CLR,,0.00,WeatherDisplay:10.37,2013-07-25 06:10:00,
2013-07-24 23:15:00,85.1,49.3,29.70,SSW,202,8.0,14.0,29,0.00,CLR,,0.00,WeatherDisplay:10.37,2013-07-25 06:15:00,
2013-07-24 23:20:00,85.4,49.5,29.70,SSW,213,13.0,14.0,29,0.00,CLR,,0.00,WeatherDisplay:10.37,2013-07-25 06:20:00,
2013-07-24 23:25:00,85.9,50.0,29.70,SSE,163,20.7,20.7,29,0.00,OVC,,0.00,WeatherDisplay:10.37,2013-07-25 06:25:00,
2013-07-24 23:30:00,85.9,50.0,29.69,South,189,15.0,18.0,29,0.00,CLR,,0.00,WeatherDisplay:10.37,2013-07-25 06:30:00,
2013-07-24 23:35:00,86.3,50.3,29.70,SSW,203,10.0,17.0,29,0.00,CLR,,0.00,WeatherDisplay:10.37,2013-07-25 06:35:00,
2013-07-24 23:40:00,86.3,49.4,29.70,SSW,197,2.0,6.0,28,0.00,CLR,,0.00,WeatherDisplay:10.37,2013-07-25 06:40:00,
2013-07-24 23:45:00,85.7,49.8,29.70,SSW,207,3.0,8.0,29,0.00,CLR,,0.00,WeatherDisplay:10.37,2013-07-25 06:45:00,
2013-07-24 23:50:00,85.3,49.4,29.70,SW,228,7.0,12.0,29,0.00,CLR,,0.00,WeatherDisplay:10.37,2013-07-25 06:50:00,
2013-07-24 23:54:00,83.9,49.1,29.70,WNW,291,5.0,5.0,30,0.00,OVC,,0.00,WeatherDisplay:10.37,2013-07-25 06:54:00,
2013-07-24 23:59:00,83.4,49.6,29.70,West,277,5.8,5.8,31,0.00,OVC,,0.00,WeatherDisplay:10.37,2013-07-25 06:59:00,